Bowling Green, Kentucky, United States (42101)
Lat: 36.99N, Lon: 86.44W
Wx Zone: KYZ071
Local Info
Past Weather Observations for Thursday, June 25, 2015

NOTE: This archive is for the closest National Weather Service station to Bowling Green. Information may differ from the station used for current weather conditions.

Click here for Long-term Archive

Time Weather Temperature Dewpoint Humidity Pressure Winds Precip Visibility
23:55
Partly Cloudy
81°F / 27°C 72°F / 22°C 74% 29.95 in
(1014 mb)
SSW 8.1 mph
(SSW 13 kph)
- 10SM
23:35
Clear
81°F / 27°C 72°F / 22°C 74% 29.95 in
(1014 mb)
SW 9.2 mph
(SW 15 kph)
- 10SM
23:15
Clear
81°F / 27°C 72°F / 22°C 74% 29.95 in
(1014 mb)
SW 10.4 mph
(SW 17 kph)
- 10SM
22:55
Clear
81°F / 27°C 72°F / 22°C 74% 29.95 in
(1014 mb)
SW 8.1 mph
(SW 13 kph)
- 10SM
22:35
Clear
81°F / 27°C 72°F / 22°C 74% 29.98 in
(1015 mb)
SW 6.9 mph
(SW 11 kph)
- 10SM
22:15
Clear
79°F / 26°C 72°F / 22°C 79% 29.98 in
(1015 mb)
SSW 3.5 mph
(SSW 6 kph)
- 10SM
21:55
Clear
79°F / 26°C 72°F / 22°C 79% 29.98 in
(1015 mb)
SSW 4.6 mph
(SSW 7 kph)
- 10SM
21:35
Clear
79°F / 26°C 72°F / 22°C 79% 29.98 in
(1015 mb)
SSW 4.6 mph
(SSW 7 kph)
- 10SM
21:15
Partly Cloudy
79°F / 26°C 73°F / 23°C 84% 29.98 in
(1015 mb)
Calm - 10SM
20:55
Partly Cloudy
81°F / 27°C 73°F / 23°C 79% 29.98 in
(1015 mb)
Calm - 10SM
20:35
Partly Cloudy
81°F / 27°C 73°F / 23°C 79% 29.98 in
(1015 mb)
Calm - 10SM
20:15
Mostly Cloudy
81°F / 27°C 73°F / 23°C 79% 29.98 in
(1015 mb)
Calm - 10SM
19:55
Mostly Cloudy
82°F / 28°C 73°F / 23°C 74% 29.98 in
(1015 mb)
SW 5.8 mph
(SW 9 kph)
- 10SM
19:35
Mostly Cloudy
84°F / 29°C 73°F / 23°C 70% 29.98 in
(1015 mb)
SSW 3.5 mph
(SSW 6 kph)
- 10SM
19:15
Mostly Cloudy
84°F / 29°C 73°F / 23°C 70% 29.98 in
(1015 mb)
SSW 3.5 mph
(SSW 6 kph)
- 10SM
18:55
Partly Cloudy
84°F / 29°C 73°F / 23°C 70% 29.98 in
(1015 mb)
Calm - 10SM
18:35
Partly Cloudy
86°F / 30°C 73°F / 23°C 66% 29.98 in
(1015 mb)
SSE 3.5 mph
(SSE 6 kph)
- 10SM
18:15
Partly Cloudy
86°F / 30°C 73°F / 23°C 66% 29.98 in
(1015 mb)
Calm - 10SM
17:55
Partly Cloudy
88°F / 31°C 73°F / 23°C 62% 29.98 in
(1015 mb)
Calm - 10SM
17:35
Partly Cloudy
88°F / 31°C 73°F / 23°C 62% 29.98 in
(1015 mb)
Calm - 10SM
17:15
Partly Cloudy
88°F / 31°C 73°F / 23°C 62% 29.95 in
(1014 mb)
SSW 4.6 mph
(SSW 7 kph)
- 10SM
16:55
Clear
88°F / 31°C 73°F / 23°C 62% 29.95 in
(1014 mb)
SW 8.1 mph
(SW 13 kph)
- 10SM
16:35
Partly Cloudy
90°F / 32°C 73°F / 23°C 59% 29.98 in
(1015 mb)
SW 10.4 mph
(SW 17 kph)
- 10SM
16:15
Partly Cloudy
90°F / 32°C 73°F / 23°C 59% 29.98 in
(1015 mb)
SW 8.1 mph
(SW 13 kph)
- 10SM
15:55
Partly Cloudy
90°F / 32°C 73°F / 23°C 59% 29.98 in
(1015 mb)
SW 10.4 mph
(SW 17 kph)
- 10SM
15:35
Partly Cloudy
90°F / 32°C 73°F / 23°C 59% 29.98 in
(1015 mb)
SW 8.1 mph
(SW 13 kph)
- 10SM
15:15
Clear
90°F / 32°C 73°F / 23°C 59% 29.98 in
(1015 mb)
SW 10.4 mph
(SW 17 kph)
- 10SM
14:55
Clear
90°F / 32°C 73°F / 23°C 59% 29.98 in
(1015 mb)
SW 11.5 mph
(SW 19 kph)
- 10SM
14:35
Partly Cloudy
90°F / 32°C 73°F / 23°C 59% 30.01 in
(1016 mb)
SSW 11.5 mph
(SSW 19 kph)
- 10SM
14:15
Partly Cloudy
90°F / 32°C 73°F / 23°C 59% 30.01 in
(1016 mb)
SSW 9.2 mph
(SSW 15 kph)
- 10SM
13:55
Partly Cloudy
90°F / 32°C 73°F / 23°C 59% 30.01 in
(1016 mb)
SW 12.7 mph
(SW 20 kph)
- 10SM
13:35
Clear
90°F / 32°C 75°F / 24°C 63% 30.01 in
(1016 mb)
SW 11.5 mph
(SW 19 kph)
- 10SM
13:15
Clear
88°F / 31°C 73°F / 23°C 62% 30.01 in
(1016 mb)
SW 11.5 mph
(SW 19 kph)
- 10SM
12:55
Clear
88°F / 31°C 73°F / 23°C 62% 30.01 in
(1016 mb)
SW 9.2 mph
(SW 15 kph)
- 10SM
12:35
Clear
88°F / 31°C 73°F / 23°C 62% 30.04 in
(1017 mb)
SW 9.2 mph
(SW 15 kph)
- 10SM
12:15
Partly Cloudy
86°F / 30°C 73°F / 23°C 66% 30.04 in
(1017 mb)
SSE 9.2 mph
(SSE 15 kph)
- 10SM
11:55
Mostly Cloudy
86°F / 30°C 73°F / 23°C 66% 30.04 in
(1017 mb)
SW 10.4 mph
(SW 17 kph)
- 10SM
11:35
Mostly Cloudy
86°F / 30°C 73°F / 23°C 66% 30.06 in
(1018 mb)
SW 6.9 mph
(SW 11 kph)
- 10SM
11:15
Partly Cloudy
86°F / 30°C 73°F / 23°C 66% 30.06 in
(1018 mb)
SW 5.8 mph
(SW 9 kph)
- 10SM
10:55
Clear
86°F / 30°C 73°F / 23°C 66% 30.09 in
(1019 mb)
SW 8.1 mph
(SW 13 kph)
- 10SM
10:35
Partly Cloudy
84°F / 29°C 73°F / 23°C 70% 30.09 in
(1019 mb)
SW 9.2 mph
(SW 15 kph)
- 10SM
10:15
Partly Cloudy
84°F / 29°C 73°F / 23°C 70% 30.09 in
(1019 mb)
SSE 6.9 mph
(SSE 11 kph)
- 10SM
09:55
Mostly Cloudy
84°F / 29°C 73°F / 23°C 70% 30.09 in
(1019 mb)
SW 8.1 mph
(SW 13 kph)
- 10SM
09:35
Mostly Cloudy
82°F / 28°C 73°F / 23°C 74% 30.09 in
(1019 mb)
SSE 8.1 mph
(SSE 13 kph)
- 10SM
09:15
Clear
82°F / 28°C 73°F / 23°C 74% 30.09 in
(1019 mb)
SW 5.8 mph
(SW 9 kph)
- 10SM
08:55
Clear
81°F / 27°C 72°F / 22°C 74% 30.09 in
(1019 mb)
SW 5.8 mph
(SW 9 kph)
- 10SM
08:35
Clear
81°F / 27°C 72°F / 22°C 74% 30.09 in
(1019 mb)
Calm - 10SM
08:15
Clear
79°F / 26°C 72°F / 22°C 79% 30.12 in
(1020 mb)
W 4.6 mph
(W 7 kph)
- 10SM
07:55
Partly Cloudy
79°F / 26°C 70°F / 21°C 74% 30.12 in
(1020 mb)
NNW 4.6 mph
(NNW 7 kph)
- 10SM
07:35
Partly Cloudy
77°F / 25°C 68°F / 20°C 74% 30.12 in
(1020 mb)
NW 3.5 mph
(NW 6 kph)
- 10SM
07:15
Clear
75°F / 24°C 68°F / 20°C 78% 30.12 in
(1020 mb)
SW 3.5 mph
(SW 6 kph)
- 10SM
06:55
Partly Cloudy
75°F / 24°C 68°F / 20°C 78% 30.12 in
(1020 mb)
Calm - 10SM
06:35
Clear
73°F / 23°C 66°F / 19°C 78% 30.09 in
(1019 mb)
Calm - 10SM
06:15
Clear
72°F / 22°C 66°F / 19°C 83% 30.09 in
(1019 mb)
Calm - 10SM
05:55
Clear
70°F / 21°C 66°F / 19°C 88% 30.09 in
(1019 mb)
Calm - 10SM
05:35
Clear
68°F / 20°C 68°F / 20°C 100% 30.09 in
(1019 mb)
Calm - 10SM
05:15
Clear
66°F / 19°C 66°F / 19°C 100% 30.09 in
(1019 mb)
Calm - 10SM
04:55
Clear
66°F / 19°C 66°F / 19°C 100% 30.09 in
(1019 mb)
Calm - 10SM
04:35
Clear
66°F / 19°C 66°F / 19°C 100% 30.09 in
(1019 mb)
Calm - 10SM
04:15
Clear
66°F / 19°C 66°F / 19°C 100% 30.09 in
(1019 mb)
Calm - 10SM
03:55
Clear
66°F / 19°C 66°F / 19°C 100% 30.06 in
(1018 mb)
Calm - 10SM
03:35
Clear
66°F / 19°C 66°F / 19°C 100% 30.06 in
(1018 mb)
Calm - 10SM
03:15
Clear
66°F / 19°C 66°F / 19°C 100% 30.06 in
(1018 mb)
Calm - 10SM
02:55
Clear
66°F / 19°C 66°F / 19°C 100% 30.04 in
(1017 mb)
Calm - 10SM
02:35
Clear
66°F / 19°C 66°F / 19°C 100% 30.04 in
(1017 mb)
Calm - 10SM
02:15
Clear
66°F / 19°C 66°F / 19°C 100% 30.04 in
(1017 mb)
Calm - 10SM
01:55
Clear
68°F / 20°C 68°F / 20°C 100% 30.06 in
(1018 mb)
Calm - 10SM
01:35
Clear
68°F / 20°C 68°F / 20°C 100% 30.06 in
(1018 mb)
Calm - 10SM
01:15
Clear
68°F / 20°C 68°F / 20°C 100% 30.06 in
(1018 mb)
Calm - 10SM
00:55
Clear
68°F / 20°C 68°F / 20°C 100% 30.06 in
(1018 mb)
N 3.5 mph
(N 6 kph)
- 10SM
00:35
Clear
68°F / 20°C 68°F / 20°C 100% 30.09 in
(1019 mb)
Calm - 10SM
00:15
Clear
68°F / 20°C 68°F / 20°C 100% 30.09 in
(1019 mb)
Calm - 10SM
Time Weather Temperature Dewpoint Humidity Pressure Winds Precip Visibility


Weather for websites

WeatherForYou.com, LLC is not responsible for any damages or problems caused by this service. Current weather conditions are obtained from the closest station including government and personal stations which may have varying degrees of accuracy. Weather forecasts are derived from the NOAA NDFD. Like all things, this site belongs to Jesus Christ... He just trusts us to maintain it. If you have any questions or comments email webmaster@weatherforyou.com

Copyright © 2015, WeatherForYou.com LLC. All rights reserved.